Terminal Aerodrome Forecast
Issued by NWS

Home | Current Version | Previous Version | Text Only | Print | Product List | Glossary On
Versions: 1 2 3 4 5 6 7 8 9 10 11 12 13 14 15 16 17 18 19 20 21 22 23 24 25 26 27 28 29 30 31 32 33 34 35 36 37 38 39 40 41 42 43 44 45 46 47 48 49 50
000
FTUS41 KCTP 050242 AAA
TAFBFD
TAF AMD
KBFD 050242Z 0503/0524 26005KT P6SM VCSH OVC050
     FM050400 28003KT P6SM VCSH SCT015 OVC025
     FM050600 VRB02KT 2SM BR VCFG BKN008
     FM051200 01004KT P6SM BKN050=

USA.gov is the U.S. government's official web portal to all federal, state and local government web resources and services.